Regional Weather Roundup
Issued by NWS

Home | Current Version | Previous Version | Text Only | Print | Product List | Glossary Off
Versions: 1 2 3 4 5 6 7 8 9 10 11 12 13 14 15 16 17 18 19 20 21 22 23 24 25 26 27 28 29 30 31 32 33 34 35 36 37 38 39 40 41 42 43 44 45 46 47 48 49 50

000
ASUS43 KBIS 241959
RWRND

NORTH DAKOTA REGIONAL WEATHER ROUNDUP
NATIONAL WEATHER SERVICE BISMARCK ND
200 PM CST MON NOV 24 2014

NOTE: "FAIR" INDICATES FEW OR NO CLOUDS BELOW 12,000 FEET WITH NO
SIGNIFICANT WEATHER AND/OR OBSTRUCTIONS TO VISIBILITY.


NDZ001>003-009>011-017-242100-
NORTHWEST NORTH DAKOTA

CITY           SKY/WX    TMP DP  RH WIND       PRES   REMARKS
WILLISTON      MOSUNNY   25  17  72 W10       29.99R WCI  15
MINOT          SUNNY     20   1  43 W9        29.94R WCI   9
$$

NDZ018>021-031>035-040>046-242100-
SOUTHWEST NORTH DAKOTA

CITY           SKY/WX    TMP DP  RH WIND       PRES   REMARKS
BISMARCK       SUNNY     27  -1  30 N10G22    29.95R WCI  17
GARRISON         N/A     24   1  36 NW16      29.94R WCI  11
HETTINGER ARPT SUNNY     25  17  72 NW16      29.94R WCI  12
$$

NDZ004>008-012>016-024-026-027-054-242100-
NORTHEAST NORTH DAKOTA

CITY           SKY/WX    TMP DP  RH WIND       PRES   REMARKS
GRAND FORKS    MOSUNNY   18  10  71 N21G29    29.83R WCI   1
DEVILS LAKE    SUNNY     16  -2  45 NW16      29.87R WCI   0
$$

NDZ022-023-025-028>030-036>039-047>053-242100-
SOUTHEAST NORTH DAKOTA

CITY           SKY/WX    TMP DP  RH WIND       PRES   REMARKS
FARGO          CLOUDY    18  10  71 N25G31    29.80R WCI   0
$$



USA.gov is the U.S. government's official web portal to all federal, state and local government web resources and services.